FW8511 Weather Reports


time (UTC)temp
F
wind
direction
speed
knots
gust
knots
rain 1hr
in
rain 24hr
in
rain mn
in
humidity
%
barometer
mb
20260505092642 72 74 1.7 3.5 0.00 1.13 0.00 89 1012.8
20260505085942 72 73 1.7 8.7 0.00 1.13 0.00 89 1012.7
20260505085042 72 72 1.7 4.3 0.00 1.13 0.00 89 1012.7
20260505081442 72 79 1.7 7.0 0.00 1.13 0.00 89 1012.8
20260505080542 72 76 1.7 5.2 0.00 1.13 0.00 89 1012.9
20260505075642 72 74 1.7 4.3 0.00 1.13 0.00 89 1012.7
20260505074742 72 73 2.6 7.8 0.00 1.13 0.00 89 1012.7
20260505073842 72 79 0.9 4.3 0.00 1.13 0.00 89 1012.7
20260505072942 72 74 1.7 3.5 0.00 1.13 0.00 89 1012.7
20260505072042 72 81 1.7 6.1 0.00 1.13 0.00 88 1012.7
20260505071142 72 72 1.7 6.1 0.00 1.13 0.00 88 1012.7
20260505070242 72 90 1.7 4.3 0.00 1.13 0.00 88 1012.8
20260505064442 72 74 2.6 7.8 0.00 1.13 0.00 88 1013.2
20260505063542 72 73 1.7 4.3 0.00 1.13 0.00 88 1013.3
20260505062642 72 73 1.7 4.3 0.00 1.13 0.00 89 1013.4
20260505061742 72 77 1.7 6.1 0.00 1.13 0.00 89 1013.3
20260505060842 72 72 1.7 6.1 0.00 1.13 0.00 89 1013.3
20260505055942 72 73 1.7 5.2 0.00 1.13 0.00 89 1013.2
20260505055042 72 76 1.7 7.0 0.00 1.13 0.00 89 1013.3
20260505054142 71 74 1.7 5.2 0.00 1.13 0.00 90 1013.7
20260505053242 71 90 0.9 4.3 0.00 1.13 0.00 90 1013.8
20260505052342 71 73 1.7 3.5 0.00 1.13 0.00 89 1014.0
20260505051442 72 89 1.7 8.7 0.00 1.13 0.00 89 1014.1
20260505050542 71 87 1.7 4.3 0.00 1.13 0.00 88 1014.0
20260505041141 72 75 0.9 5.2 0.00 1.13 0.00 87 1014.6
20260505040304 72 84 0.9 3.5 0.00 1.13 0.00 87 1014.7
20260505035342 72 82 1.7 4.3 0.00 1.13 1.13 87 1014.5
20260505034443 72 70 1.7 5.2 0.00 1.13 1.13 87 1014.8
20260505032642 72 70 1.7 6.1 0.00 1.13 1.13 87 1014.6
20260505030843 72 78 1.7 7.8 0.00 1.13 1.13 88 1014.6
20260505025943 72 71 0.9 4.3 0.00 1.13 1.13 90 1014.4
20260505024142 72 86 0.9 3.5 0.00 1.13 1.13 91 1014.4
20260505023241 72 86 0.9 4.3 0.01 1.13 1.13 92 1014.5
20260505021441 72 0 0.0 1.7 0.01 1.13 1.13 93 1014.0
20260505020541 72 0 0.0 1.7 0.02 1.13 1.13 93 1013.9
20260505014742 72 0 0.0 0.9 0.09 1.13 1.13 93 1013.7
20260505013842 72 0 0.0 0.9 0.08 1.12 1.12 93 1013.8
20260505012942 72 0 0.0 0.9 0.09 1.12 1.12 93 1014.1
20260505012042 72 0 0.0 0.0 0.13 1.12 1.12 94 1014.0
20260505011142 72 0 0.0 0.9 0.19 1.12 1.12 93 1013.7
20260505010242 72 0 0.0 0.0 0.28 1.10 1.11 93 1013.6
20260505003542 72 0 0.0 0.9 0.64 1.03 1.03 92 1013.7
20260505002642 72 0 0.0 1.7 0.71 1.01 1.02 92 1013.3
20260505000842 72 137 0.9 3.5 0.90 0.90 0.90 91 1013.3
20260504235942 73 37 0.9 3.5 0.77 0.77 0.78 92 1013.1
20260504235042 73 0 0.0 0.9 0.64 0.64 0.66 91 1012.9
20260504233242 74 23 0.9 1.7 0.37 0.37 0.38 87 1012.8
20260504232342 77 40 1.7 3.5 0.23 0.23 0.25 82 1012.7
20260504231442 80 165 0.9 3.5 0.00 0.00 0.00 71 1012.5
20260504230541 81 237 1.7 7.8 0.00 0.00 0.00 72 1012.3
20260504225642 82 105 0.9 4.3 0.00 0.00 0.00 67 1012.3
20260504224741 82 99 1.7 4.3 0.00 0.00 0.00 64 1012.2
20260504223841 83 111 0.9 4.3 0.00 0.00 0.00 64 1012.2
20260504222942 83 101 0.9 3.5 0.00 0.00 0.00 65 1012.0
20260504222041 83 89 1.7 6.1 0.00 0.00 0.00 64 1012.1
20260504220242 84 100 0.9 7.8 0.00 0.00 0.00 63 1012.1
20260504215341 85 143 0.9 4.3 0.00 0.00 0.00 61 1012.0
20260504214442 86 79 1.7 6.1 0.00 0.00 0.00 60 1011.9
20260504213542 87 65 1.7 6.1 0.00 0.00 0.00 57 1011.9
20260504212641 88 96 0.9 4.3 0.00 0.00 0.00 54 1011.9
20260504211742 89 89 0.9 2.6 0.00 0.00 0.00 54 1012.0
20260504210842 89 107 1.7 4.3 0.00 0.00 0.00 53 1012.0
20260504205941 89 68 2.6 7.8 0.00 0.00 0.00 53 1012.0
20260504205041 89 70 1.7 6.1 0.00 0.00 0.00 51 1012.1
20260504204142 90 69 1.7 3.5 0.00 0.00 0.00 53 1012.2
20260504203242 89 68 1.7 7.0 0.00 0.00 0.00 52 1012.3
20260504202341 89 87 1.7 8.7 0.00 0.00 0.00 53 1012.4
20260504201441 89 71 1.7 5.2 0.00 0.00 0.00 53 1012.4
20260504200541 90 80 0.9 4.3 0.00 0.00 0.00 52 1012.4
20260504195642 88 65 2.6 7.0 0.00 0.00 0.00 55 1012.7
20260504194742 88 67 2.6 7.0 0.00 0.00 0.00 55 1012.8
20260504193842 89 79 1.7 6.1 0.00 0.00 0.00 54 1012.8
20260504192941 89 76 1.7 5.2 0.00 0.00 0.00 53 1013.0
20260504192041 88 81 1.7 7.0 0.00 0.00 0.00 53 1013.0
20260504191141 88 72 1.7 8.7 0.00 0.00 0.00 55 1013.1
20260504190242 87 59 2.6 7.0 0.00 0.00 0.00 56 1013.3
20260504185341 86 67 2.6 7.8 0.00 0.00 0.00 57 1013.3
20260504184441 87 65 2.6 8.7 0.00 0.00 0.00 56 1013.5
20260504182641 86 71 2.6 7.0 0.00 0.00 0.00 57 1013.7
20260504181741 86 62 2.6 7.0 0.00 0.00 0.00 57 1013.7
20260504180841 86 64 2.6 7.8 0.00 0.00 0.00 57 1013.9
20260504175941 86 71 2.6 7.8 0.00 0.00 0.00 59 1013.9
20260504175041 84 71 3.5 8.7 0.00 0.00 0.00 59 1014.0
20260504174141 85 64 3.5 7.8 0.00 0.00 0.00 59 1014.1
20260504173241 84 69 3.5 11.3 0.00 0.00 0.00 61 1014.4
20260504172341 85 68 2.6 7.8 0.00 0.00 0.00 61 1014.6
20260504171441 84 70 3.5 9.6 0.00 0.00 0.00 61 1014.7
20260504160241 82 63 3.5 11.3 0.00 0.00 0.00 66 1015.4
20260504150841 80 60 4.3 10.4 0.00 0.00 0.00 69 1015.7
20260504140541 76 61 3.5 8.7 0.00 0.00 0.00 73 1015.5
20260504130241 73 62 3.5 7.8 0.00 0.00 0.00 80 1015.0
20260504110540 70 38 1.7 8.7 0.00 0.00 0.00 87 1014.0